Regional Weather Roundup
Issued by NWS

Home | Current Version | Previous Version | Graphics & Text | Print | Product List | Glossary On
Versions: 1 2 3 4 5 6 7 8 9 10 11 12 13 14 15 16 17 18 19 20 21 22 23 24 25 26 27 28 29 30 31 32 33 34 35 36 37 38 39 40 41 42 43 44 45 46 47 48 49 50
000
ASUS43 KMPX 260210
RWRMN
WEATHER ROUNDUP FOR MINNESOTA
NATIONAL WEATHER SERVICE TWIN CITIES/CHANHASSEN MN
900 PM CDT SAT MAR 25 2017


NOTE: "FAIR" INDICATES FEW OR NO CLOUDS BELOW 12,000 FEET WITH NO
SIGNIFICANT WEATHER AND/OR OBSTRUCTIONS TO VISIBILITY. N/A MEANS
CURRENT SKY AND/OR WEATHER CONDITIONS ARE NOT AVAILABLE.

MNZ060>063-068>070-260300-
   Twin Cities Metro

CITY           SKY/WX    TMP DP  RH WIND       PRES   REMARKS
TWIN CITIES    CLOUDY    40  34  79 E12       30.06S
ST PAUL        CLOUDY    40  36  86 E8        30.07S
CRYSTAL        CLOUDY    41  32  70 NE9       30.05S
BLAINE         CLOUDY    43  36  75 E9        30.06R
LAKEVILLE      CLOUDY    37  37 100 E9        30.04F FOG
EDEN PRAIRIE   CLOUDY    41  35  79 E8        30.04S
SOUTH ST PAUL  CLOUDY    40  37  91 E6        30.06R
LAKE ELMO      CLOUDY    39  36  87 E9        30.07S
$$
MNZ001>005-007-008-013>017-022>024-027-028-260300-
   Northwest Minnesota

CITY           SKY/WX    TMP DP  RH WIND       PRES   REMARKS
BEMIDJI        CLOUDY    32  28  83 SE7       30.05F WCI  26
HALLOCK        PTCLDY    34  34 100 S10       30.00F WCI  26
ROSEAU         PTCLDY    37  30  75 SE9       30.02F
WARROAD        MOCLDY    37  30  75 S12       30.04F
THIEF RVR FALL CLOUDY   N/A N/A N/A CALM      30.04R
CROOKSTON      CLOUDY    34  34 100 SW6       30.04S WCI  29
FOSSTON        MOCLDY    37  28  70 SE8       30.05R
DETROIT LAKES  CLOUDY    39  32  75 SE5       30.04S
MOORHEAD       CLOUDY    34  32  93 CALM      30.05R
PARK RAPIDS    CLOUDY    37  26  64 SE8       30.04F
MAHNOMEN       FAIR      38  30  72 SE5       30.04R
$$
MNZ006-009>011-018-025>026-260300-
   North Central Minnesota

CITY           SKY/WX    TMP DP  RH WIND       PRES   REMARKS
BAUDETTE       PTCLDY    38  27  64 SE13      30.05S
FLAG ISLAND    PTCLDY    36  28  75 SE10      30.03S
INTL FALLS     CLOUDY    35  26  69 SE9       30.10S WCI  28
WASKISH        MOCLDY    34  28  80 SE5       30.07S WCI  30
BIG FORK       CLOUDY    34  27  75 SE6       30.10F WCI  29
LONGVILLE      CLOUDY    34  27  75 E3        30.09S
CRANE LAKE     CLOUDY    32  25  74 S7        30.16S WCI  26
ORR            CLOUDY    30  23  74 SE7       30.11S WCI  23
COOK           CLOUDY    30  25  80 SE12      30.15S WCI  21
WALKER         FAIR      33  28  79 SE6       30.07S WCI  28
$$
MNZ012-019>021-037-260300-
   Northeast Minnesota

CITY           SKY/WX    TMP DP  RH WIND       PRES   REMARKS
DULUTH         CLOUDY    31  29  92 E17       30.14S WCI  19
ELY            CLOUDY    30  25  80 SE14      30.15F WCI  20
HIBBING        CLOUDY    30  26  85 SE14      30.13F WCI  19
EVELETH        CLOUDY    32  27  80 SE7       30.15F WCI  26
DULUTH HARBOR  CLOUDY    34  30  86 NE22      30.17F WCI  22
TWO HARBORS    CLOUDY    34  28  80 NE13      30.15F WCI  25
SILVER BAY     CLOUDY    30  30 100 E12       30.17F WCI  21
GRAND MARAIS     N/A     33  25  72 NE10      30.24F WCI  25
G MARAIS ARPRT CLOUDY    27  19  74 E6        30.18F WCI  20
$$
MNZ029>031-032-039>041-046>048-054>057-064-260300-
   West Central Minnesota

CITY           SKY/WX    TMP DP  RH WIND       PRES   REMARKS
FERGUS FALLS   CLOUDY    34  28  80 S7        30.07S WCI  28
WHEATON        CLOUDY    37  34  87 SE10      30.06S
MORRIS         CLOUDY    39  34  81 SE8       30.04S
ALEXANDRIA     CLOUDY    39  33  79 E3        30.05R
ELBOW LAKE     FAIR      33  31  91 CALM      30.04S
WADENA         CLOUDY    37  28  70 E9        30.04F
GLENWOOD       CLOUDY    39  34  81 E9        30.05S
APPLETON       CLOUDY    39  36  87 CALM      30.05R
BENSON         CLOUDY    41  32  70 SE6       30.06F
ORTONVILLE     CLOUDY    37  32  81 E6        30.04S
MADISON        CLOUDY    39  39 100 E6        30.05R
WILLMAR        CLOUDY    41  36  81 E12       30.06S
$$
MNZ033>034-036-042>043-049>051-058-059-260300-
   Central Minnesota

CITY           SKY/WX    TMP DP  RH WIND       PRES   REMARKS
ST CLOUD       CLOUDY    42  34  73 E3        30.06S
SAUK CENTRE    CLOUDY    40  34  80 E5        30.06R
PAYNESVILLE      N/A     40  34  80 E3        30.06S
AITKIN         CLOUDY    36  27  69 E8        30.09S
PINE RIVER     CLOUDY    32  28  86 E9        30.11S WCI  24
BRAINERD       MOCLDY    34  28  79 NE12      30.09R WCI  25
STAPLES        CLOUDY    36  28  75 E7        30.06S
LONG PRAIRIE   CLOUDY    39  32  75 E5        30.05S
LITTLE FALLS   CLOUDY    41  30  65 NE3       30.06S
LITCHFIELD     CLOUDY    39  37  93 E5        30.06S FOG
BUFFALO        CLOUDY    40  33  76 E9        30.06S
MAPLE LAKE     CLOUDY    40  36  84 E8        30.07R
HUTCHINSON     CLOUDY    39  36  87 NE7       30.06R
$$
MNZ037-044-045-052-053-260300-
   East Central Minnesota

CITY           SKY/WX    TMP DP  RH WIND       PRES   REMARKS
PRINCETON      CLOUDY    43  34  70 E5        30.07S
MORA           CLOUDY    36  30  80 NE7       30.10S
CAMBRIDGE      CLOUDY    45  32  61 NE6       30.05S
RUSH CITY      CLOUDY    42  32  67 NE6       30.08S
MOOSE LAKE     CLOUDY    32  30  93 NE8       30.11S WCI  25
CLOQUET        CLOUDY    30  28  93 E13G20    30.13S WCI  20
MCGREGOR       CLOUDY    32  30  93 E7        30.12S WCI  26
$$
MNZ071>073-080-081-089-090-097-098-260300-
   Southwest Minnesota

CITY           SKY/WX    TMP DP  RH WIND       PRES   REMARKS
MONTEVIDEO     CLOUDY    39  36  87 SE6       30.06S
GRANITE FALLS  CLOUDY    40  37  90 E9        30.05S
CANBY          CLOUDY    39  37  94 CALM      30.05R
MARSHALL       CLOUDY    37  37 100 E8        30.03S
REDWOOD FALLS  CLOUDY    40  34  79 NE7       30.04S
OLIVIA         CLOUDY    39  34  81 E7        30.04S
PIPESTONE      CLOUDY    37  34  87 E12       29.98F FOG
WINDOM         CLOUDY    37  37 100 NE10      30.01S FOG
WORTHINGTON    CLOUDY    36  36 100 NE10      30.00S
JACKSON        CLOUDY    36  36 100 NE10      29.99F FOG
TRACY          CLOUDY    39  37  91 E8        30.02S
SLAYTON        CLOUDY    36  36  99 E9        30.01S FOG
$$
MNZ065>067-074>077-082>085-091>093-260300-
   South Central Minnesota

CITY           SKY/WX    TMP DP  RH WIND       PRES   REMARKS
MANKATO        CLOUDY    38  36  92 E9        30.03S
NEW ULM        CLOUDY    37  36  93 E7        30.03S FOG
ST JAMES       CLOUDY    37  37 100 CALM      30.02F
FAIRMONT       MIX PCPN  37  36  96 NE10      30.00F
GLENCOE        CLOUDY    40  37  86 CALM      30.04S
FARIBAULT      DRIZZLE   37  36  93 NE8       30.03S
OWATONNA       DRIZZLE   37  36  93 NE9       30.01S
WASECA         DRIZZLE   36  34  93 NE9       30.02F
ALBERT LEA     DRIZZLE   37  36  93 E12       29.99S
$$
MNZ078>079-086>088-094>096-260300-
   Southeast Minnesota

CITY           SKY/WX    TMP DP  RH WIND       PRES   REMARKS
ROCHESTER      CLOUDY    36  35  96 E15       30.00F
RED WING       DRIZZLE   39  36  87 E8        30.05S
STANTON        DRIZZLE   38  36  91 NE7       30.03S
DODGE CENTER   CLOUDY    37  36  93 E13       30.01S
WINONA         CLOUDY    36  34  93 E7        30.06S
AUSTIN         CLOUDY    37  36  93 E10       29.98F FOG
PRESTON        DRIZZLE   35  34  94 E12       30.00F WCI  27
$$
ABBREVIATIONS USED IN REMARKS
   TC - TEMPERATURES IN CELSIUS
  WCI - WIND CHILL INDEX
   HX - HEAT INDEX
  VSB - VISIBILITY
$$




USA.gov is the U.S. government's official web portal to all federal, state and local government web resources and services.